User: anonymous   Login
Location: Unspecified
(0.0000°N, 0.0000°E)
Time: 09:23:19
(UTC+00:00)
Language:

Kopernikus 3 - Orbit

View from above orbital plane
View from above orbital plane
View from above satellite
View from above satellite

Ground track
Ground track

The orbit data is extracted from the following two-line orbital elements,

1 22175U 92066A   18015.14925212 +.00000089 +00000-0 +00000-0 0  9998
2 22175 012.3715 030.7716 0005073 278.1314 083.9235 00.99727589089882
Epoch (UTC): 15 January 2018 03:34:55
Eccentricity: 0.0005073
inclination: 12.3715°
perigee height: 35918 km
apogee height: 35961 km
right ascension of ascending node: 30.7716°
argument of perigee: 278.1314°
revolutions per day: 0.99727589
mean anomaly at epoch: 83.9235°
orbit number at epoch: 8988

The dashed part of the orbit path shows where the satellite is in the earth's shadow,  

DLR